map of MFM home
MFM - Airport
Location
City:  Macau, Taipa Island, Macau
Name:Macau International Airport
ICAO:VMMC
IATA:MFM

Details
Type:Airport (Aerodrome, Airfield)
Use:Public/Civil, International (customs port of entry)
Latitude:2208'58"N (22.149556)
Longitude:11335'30"E (113.591558)
Datum:WGS 1984
Elevation:20 ft (6 m)
Variation:2.68W (WMM2015 magnetic declination)
-0.06 annual change
Runways:1
Longest:10544 × 148 ft (3214 × 45 m), paved

Time
Time Zone:UTC+8
Local Time:

Weather
METAR:VMMC 091300Z 06008KT 020V100 CAVOK 20/15 Q1015 NOSIG
TAF:VMMC 091105Z 0912/1018 10010KT 9000 FEW025
BECMG 0916/0919 03008KT
TEMPO 0922/1006 4500 HZ
BECMG 1006/1008 10010KT

Related Locations
Nearby:
Farthest:SASQ: 12395 mi / 19947 km
La Quiaca, Y, AR

Find:

   beyond  
but within

Other Information
Maps:
NOTAMs:
Links:
Sources:

  
flag of Macau   

Sectional Chart

Flight Planning
at skyvector.com

Satellite Image

Google Maps Satellite view

 

Copyright © 2004-2016 Karl L. Swartz. All rights reserved.
The Great Circle Mapper name and logo are trademarks of the Great Circle Mapper.
All other trademarks mentioned herein belong to their respective owners.
Please see credits for attibutions and further copyright information.

  Follow gcmap on Facebook Follow gcmap on Twitter Follow gcmap on Google+ GCmap on LinkedIn

hCard Microformat

Geo Microformat